Location: Coed Ely
(51.5661°N, 3.4150°W)
Time: 02:27:28
(UTC+00:00)

USA 281 - Pass Details

Date: 28 January 2021
Orbit: 1072 x 1086 km, 106.0° (Epoch: 26 February)

Event Time Altitude Azimuth Distance (km) Brightness Sun altitude
Exits shadow 20:04:45 39° 23° (NNE) 1,567 3.9 -29.1°
Drops below altitude 10° 20:09:43 10° 341° (NNW) 2,940 5.8 -29.9°
Sets 20:12:21 0° 335° (NNW) 3,897 6.6 -30.3°
